Hourly Weather Barsovo

Today, 21 April, Wednesday

Time Temperature Precipitation Wind Pressure Humidity
00:00 +3°C° 0 mm 2 mps 741 mmHg 90%
01:00 +3°C° 0 mm 1 mps 741 mmHg 92%
02:00 +2°C° 0 mm 1 mps 740 mmHg 94%
03:00 +3°C° 0 mm 1 mps 740 mmHg 93%
04:00 +3°C° 0 mm 1 mps 739 mmHg 91%
05:00 +3°C° 0 mm 1 mps 739 mmHg 90%
06:00 +4°C° 0 mm 1 mps 738 mmHg 87%
07:00 +3°C° 0 mm 2 mps 738 mmHg 84%
08:00 +4°C° 0 mm 2 mps 738 mmHg 81%
09:00 +5°C° 0 mm 2 mps 738 mmHg 79%
10:00 +5°C° 0 mm 2 mps 737 mmHg 76%
11:00 +6°C° 0 mm 2 mps 737 mmHg 74%
12:00 +7°C° 0.1 mm 3 mps 737 mmHg 70%
13:00 +7°C° 0.1 mm 3 mps 737 mmHg 67%
14:00 +8°C° 0.1 mm 3 mps 737 mmHg 64%
15:00 +8°C° 0.1 mm 3 mps 737 mmHg 64%
16:00 +8°C° 0.1 mm 3 mps 737 mmHg 64%
17:00 +8°C° 0.1 mm 2 mps 737 mmHg 65%
18:00 +7°C° 0 mm 2 mps 737 mmHg 72%
19:00 +6°C° 0 mm 2 mps 738 mmHg 80%
20:00 +5°C° 0 mm 2 mps 738 mmHg 88%
21:00 +4°C° 0 mm 2 mps 738 mmHg 89%
22:00 +4°C° 0 mm 2 mps 738 mmHg 89%
23:00 +4°C° 0 mm 2 mps 738 mmHg 89%

Tomorrow, 22 April, Thursday

Time Temperature Precipitation Wind Pressure Humidity
00:00 +4°C° 0 mm 2 mps 738 mmHg 87%
01:00 +3°C° 0 mm 3 mps 738 mmHg 85%
02:00 +4°C° 0 mm 3 mps 738 mmHg 83%
03:00 +3°C° 0.1 mm 3 mps 738 mmHg 86%
04:00 +4°C° 0.1 mm 2 mps 738 mmHg 90%
05:00 +4°C° 0.1 mm 2 mps 738 mmHg 93%
06:00 +4°C° 0 mm 3 mps 739 mmHg 86%
07:00 +7°C° 0 mm 3 mps 739 mmHg 80%
08:00 +8°C° 0 mm 3 mps 739 mmHg 74%
09:00 +10°C° 0 mm 3 mps 739 mmHg 65%
10:00 +12°C° 0 mm 3 mps 739 mmHg 55%
11:00 +13°C° 0 mm 3 mps 739 mmHg 46%
12:00 +14°C° 0 mm 3 mps 739 mmHg 45%
13:00 +14°C° 0 mm 3 mps 739 mmHg 45%
14:00 +14°C° 0 mm 3 mps 739 mmHg 44%
15:00 +14°C° 0.2 mm 3 mps 739 mmHg 50%
16:00 +13°C° 0.2 mm 3 mps 738 mmHg 56%
17:00 +13°C° 0.2 mm 3 mps 738 mmHg 62%
18:00 +11°C° 0.5 mm 3 mps 738 mmHg 71%
19:00 +10°C° 0.5 mm 3 mps 739 mmHg 79%
20:00 +8°C° 0.5 mm 3 mps 739 mmHg 88%
21:00 +7°C° 0 mm 2 mps 739 mmHg 90%
22:00 +8°C° 0 mm 1 mps 739 mmHg 93%
23:00 +7°C° 0 mm 1 mps 739 mmHg 95%

Day after tomorrow, 23 April, Friday

Time Temperature Precipitation Wind Pressure Humidity
00:00 +7°C° 0.8 mm 1 mps 739 mmHg 93%
01:00 +6°C° 0.8 mm 2 mps 739 mmHg 90%
02:00 +7°C° 0.8 mm 2 mps 739 mmHg 87%
03:00 +5°C° 0.2 mm 3 mps 739 mmHg 85%
04:00 +4°C° 0.2 mm 3 mps 739 mmHg 83%
05:00 +4°C° 0.2 mm 3 mps 740 mmHg 81%
06:00 +4°C° 0 mm 3 mps 740 mmHg 78%
07:00 +5°C° 0 mm 3 mps 740 mmHg 75%
08:00 +5°C° 0 mm 4 mps 741 mmHg 72%
09:00 +5°C° 0 mm 4 mps 741 mmHg 67%
10:00 +6°C° 0 mm 4 mps 741 mmHg 62%
11:00 +7°C° 0 mm 4 mps 741 mmHg 56%
12:00 +7°C° 0 mm 4 mps 741 mmHg 53%
13:00 +7°C° 0 mm 4 mps 741 mmHg 50%
14:00 +8°C° 0 mm 4 mps 741 mmHg 46%
15:00 +8°C° 0 mm 4 mps 741 mmHg 48%
16:00 +8°C° 0 mm 3 mps 741 mmHg 50%
17:00 +8°C° 0 mm 3 mps 741 mmHg 52%
18:00 +7°C° 0 mm 2 mps 741 mmHg 58%
19:00 +6°C° 0 mm 2 mps 741 mmHg 65%
20:00 +5°C° 0 mm 1 mps 741 mmHg 71%
21:00 +5°C° 0 mm 1 mps 740 mmHg 73%
22:00 +5°C° 0 mm 1 mps 740 mmHg 74%
23:00 +5°C° 0 mm 1 mps 740 mmHg 76%

24 April, Saturday

Time Temperature Precipitation Wind Pressure Humidity
00:00 +4°C° 0 mm 1 mps 740 mmHg 77%
01:00 +4°C° 0 mm 1 mps 739 mmHg 78%
02:00 +4°C° 0 mm 1 mps 739 mmHg 80%
03:00 +3°C° 0 mm 1 mps 739 mmHg 81%
04:00 +3°C° 0 mm 1 mps 739 mmHg 83%
05:00 +3°C° 0 mm 1 mps 738 mmHg 84%
06:00 +3°C° 0 mm 2 mps 738 mmHg 78%
07:00 +4°C° 0 mm 2 mps 738 mmHg 72%
08:00 +5°C° 0 mm 2 mps 738 mmHg 66%
09:00 +4°C° 0.2 mm 3 mps 738 mmHg 62%
10:00 +5°C° 0.2 mm 3 mps 738 mmHg 58%
11:00 +7°C° 0.2 mm 3 mps 738 mmHg 54%
12:00 +6°C° 0.2 mm 4 mps 738 mmHg 54%
13:00 +6°C° 0.2 mm 4 mps 738 mmHg 53%
14:00 +6°C° 0.2 mm 4 mps 738 mmHg 53%
15:00 +5°C° 0.2 mm 4 mps 738 mmHg 55%
16:00 +5°C° 0.2 mm 4 mps 738 mmHg 57%
17:00 +5°C° 0.2 mm 3 mps 738 mmHg 59%
18:00 +3°C° 0.1 mm 3 mps 738 mmHg 68%
19:00 +2°C° 0.1 mm 3 mps 738 mmHg 77%
20:00 +1°C° 0.1 mm 3 mps 738 mmHg 86%
21:00 +2°C° 0.1 mm 2 mps 738 mmHg 87%
22:00 +2°C° 0.1 mm 2 mps 738 mmHg 88%
23:00 +1°C° 0.1 mm 2 mps 738 mmHg 89%

25 April, Sunday

Time Temperature Precipitation Wind Pressure Humidity
00:00 +1°C° 0.1 mm 2 mps 738 mmHg 91%
01:00 +1°C° 0.1 mm 2 mps 738 mmHg 93%
02:00 0°C° 0.1 mm 3 mps 738 mmHg 95%
03:00 0°C° 0.1 mm 3 mps 738 mmHg 94%
04:00 0°C° 0.1 mm 3 mps 738 mmHg 94%
05:00 0°C° 0.1 mm 3 mps 738 mmHg 93%
06:00 0°C° 0 mm 3 mps 738 mmHg 87%
07:00 +1°C° 0 mm 3 mps 738 mmHg 82%
08:00 +1°C° 0 mm 3 mps 738 mmHg 77%
09:00 +2°C° 0.1 mm 3 mps 738 mmHg 71%
10:00 +3°C° 0.1 mm 3 mps 738 mmHg 65%
11:00 +3°C° 0.1 mm 3 mps 738 mmHg 59%
12:00 +4°C° 0 mm 3 mps 738 mmHg 54%
13:00 +4°C° 0 mm 3 mps 738 mmHg 50%
14:00 +6°C° 0 mm 2 mps 738 mmHg 45%
15:00 +6°C° 0.1 mm 2 mps 738 mmHg 45%
16:00 +6°C° 0.1 mm 2 mps 738 mmHg 44%
17:00 +7°C° 0.1 mm 1 mps 738 mmHg 44%
18:00 +6°C° 0 mm 1 mps 738 mmHg 52%
19:00 +4°C° 0 mm 1 mps 738 mmHg 60%
20:00 +3°C° 0 mm 1 mps 738 mmHg 68%
21:00 +3°C° 0 mm 1 mps 738 mmHg 70%
22:00 +2°C° 0 mm 1 mps 738 mmHg 73%
23:00 +2°C° 0 mm 1 mps 738 mmHg 75%

26 April, Monday

Time Temperature Precipitation Wind Pressure Humidity
00:00 +1°C° 0 mm 1 mps 738 mmHg 77%
01:00 +1°C° 0 mm 1 mps 738 mmHg 79%
02:00 +1°C° 0 mm 1 mps 738 mmHg 81%
03:00 0°C° 0 mm 1 mps 738 mmHg 84%
04:00 0°C° 0 mm 1 mps 738 mmHg 88%
05:00 0°C° 0 mm 1 mps 738 mmHg 91%
06:00 -1°C° 0 mm 2 mps 738 mmHg 88%
07:00 +1°C° 0 mm 2 mps 738 mmHg 86%
08:00 +2°C° 0 mm 3 mps 739 mmHg 83%
09:00 +2°C° 0.1 mm 3 mps 739 mmHg 83%
10:00 +2°C° 0.1 mm 3 mps 739 mmHg 83%
11:00 +2°C° 0.1 mm 3 mps 739 mmHg 83%
12:00 +3°C° 0.2 mm 4 mps 739 mmHg 82%
13:00 +3°C° 0.2 mm 4 mps 739 mmHg 80%
14:00 +3°C° 0.2 mm 4 mps 739 mmHg 79%
15:00 +3°C° 0.2 mm 4 mps 738 mmHg 84%
16:00 +1°C° 0.2 mm 4 mps 738 mmHg 88%
17:00 +1°C° 0.2 mm 4 mps 738 mmHg 93%
18:00 +1°C° 0.1 mm 3 mps 738 mmHg 94%
19:00 +1°C° 0.1 mm 3 mps 738 mmHg 95%
20:00 +1°C° 0.1 mm 3 mps 738 mmHg 97%
21:00 +1°C° 0.2 mm 3 mps 738 mmHg 97%
22:00 0°C° 0.2 mm 3 mps 738 mmHg 97%
23:00 0°C° 0.2 mm 3 mps 738 mmHg 97%
Show more